Content
SEND FEEDBACK

Daily
Averages
Monthly
Summary
France

AVIGNON, FRANCE


Home > Europe > France
Elevation: 187 feet     Latitude: 44 00N     Longitude: 004 45E

WEATHER
 
SELECT A DAY
Number of Records: 167,848;   Date Range: 5/17/04 - 9/21/14
 
SHARE

PRINT THIS DATA

[ ← Previous Day ]
WEATHER ALMANAC - JANUARY 16, 2013
[ Next Day → ]
[ °C ]   °F
Weather ElementAverageHighLow
Temperature35.3 °F39.2 °F (1:00 pm)32 °F (11:30 pm)
Dewpoint24.7 °F30.2 °F (12:30 am)19.4 °F (11:30 pm)
Humidity66 %87 % (12:30 am)49 % (3:35 pm)
Barometer29.67 in29.80 in (12:30 am)29.56 in (2:30 pm)
Wind Speed17.6 mph29.9 mph (11:00 pm)
Wind Gust47.2 mph (11:00 pm)
Weather ElementAverage
Visibility6.2 mi
Wind DirectionNNW (336.2 °)

Weather ElementTotal
Precipitation---
Heating Degree Days29.4 (Base 65)
Averaged from 45 records on January 16, 2013
WEATHER CONDITIONS BREAKOUT
WIND DIRECTION BREAKOUT
WEATHER BY HOUR - JANUARY 16, 2013
[ °C ]   °F
Local TimeTemperatureDewpointHumidityBarometerVisibilityWind DirectionWind SpeedGust SpeedPrecipitationEventsConditions
12:30 AM33.8 °F30.2 °F87 %29.80 in6.2 miNW (320°)8.1 mph
1:00 AM33.8 °F28.4 °F81 %29.80 in6.2 miNNW (330°)8.1 mph
1:30 AM33.8 °F28.4 °F81 %29.80 in6.2 miNNW (330°)8.1 mph
2:00 AM33.8 °F28.4 °F81 %29.80 in6.2 miNNW (340°)11.5 mph
2:30 AM35.6 °F28.4 °F75 %29.80 in6.2 miNNW (330°)12.7 mphMostly Cloudy
3:00 AM33.8 °F28.4 °F81 %29.80 in6.2 miNNW (340°)15.0 mph
3:30 AM33.8 °F28.4 °F81 %29.80 in6.2 miNNW (340°)15.0 mph
4:00 AM33.8 °F28.4 °F81 %29.77 in6.2 miNNW (340°)16.1 mph
4:30 AM33.8 °F26.6 °F75 %29.77 in6.2 miNorth (350°)17.3 mph
5:00 AM33.8 °F26.6 °F75 %29.77 in6.2 miNNW (340°)16.1 mph
5:30 AM33.8 °F26.6 °F75 %29.74 in6.2 miNNW (340°)13.8 mph
6:00 AM33.8 °F24.8 °F70 %29.74 in6.2 miNNW (340°)12.7 mph
6:30 AM33.8 °F24.8 °F70 %29.74 in6.2 miNorth (360°)10.4 mph
7:00 AM33.8 °F24.8 °F70 %29.74 in6.2 miNNW (340°)15.0 mph
7:30 AM33.8 °F24.8 °F70 %29.71 in6.2 miNorth (350°)16.1 mph
8:00 AM33.8 °F24.8 °F70 %29.71 in6.2 miNorth (350°)16.1 mph
8:30 AM33.8 °F24.8 °F70 %29.71 in6.2 miNorth (350°)19.6 mph
9:00 AM33.8 °F24.8 °F70 %29.71 in6.2 miNorth (350°)18.4 mph
9:30 AM33.8 °F24.8 °F70 %29.71 in6.2 miNNW (340°)17.3 mph
10:30 AM35.6 °F24.8 °F65 %29.71 in6.2 miNNW (330°)15.0 mph
11:00 AM35.6 °F26.6 °F70 %29.68 in6.2 miNNW (330°)12.7 mph
11:30 AM37.4 °F26.6 °F65 %29.68 in6.2 miNNW (340°)13.8 mph
12:00 PM37.4 °F26.6 °F65 %29.65 in6.2 miNNW (340°)13.8 mph
12:30 PM37.4 °F24.8 °F60 %29.65 in6.2 miNNW (330°)18.4 mph
1:00 PM39.2 °F24.8 °F56 %29.62 in6.2 miNNW (340°)18.4 mph
1:30 PM39.2 °F24.8 °F56 %29.59 in6.2 miNorth (350°)15.0 mph
2:00 PM39.2 °F23.0 °F52 %29.59 in6.2 miNNW (340°)18.4 mph
2:30 PM39.2 °F23.0 °F52 %29.56 in6.2 miNNW (340°)19.6 mphMostly Cloudy
3:00 PM39.2 °F23.0 °F52 %29.56 in6.2 miNNW (340°)16.1 mph29.9 mph
3:35 PM39.2 °F21.2 °F49 %29.56 in6.2 miNNW (340°)19.6 mph
4:00 PM39.2 °F21.2 °F49 %29.56 in6.2 miNorth (350°)18.4 mph
5:00 PM37.4 °F23.0 °F56 %29.59 in6.2 miNorth (350°)19.6 mph
5:30 PM37.4 °F23.0 °F56 %29.59 in6.2 miNorth (350°)21.9 mph
6:00 PM35.6 °F23.0 °F60 %29.59 in6.2 miNorth (350°)19.6 mph32.2 mph
6:30 PM35.6 °F23.0 °F60 %29.59 in6.2 miNNW (340°)17.3 mph
7:00 PM35.6 °F23.0 °F60 %29.59 in6.2 miNorth (10°)17.3 mph
7:30 PM35.6 °F23.0 °F60 %29.59 in6.2 miNorth (360°)20.7 mph33.4 mph
8:00 PM35.6 °F23.0 °F60 %29.59 in6.2 miNorth (350°)27.6 mph39.1 mph
8:30 PM33.8 °F23.0 °F65 %29.59 in6.2 miNorth (350°)25.3 mph40.3 mph
9:00 PM33.8 °F23.0 °F65 %29.59 in6.2 miNorth (350°)24.2 mph
9:30 PM33.8 °F23.0 °F65 %29.59 in6.2 miNorth (360°)23.0 mph38.0 mph
10:00 PM33.8 °F21.2 °F60 %29.59 in6.2 miNorth (360°)24.2 mph35.7 mph
10:30 PM33.8 °F21.2 °F60 %29.59 in6.2 miNorth (350°)26.5 mph42.6 mph
11:00 PM33.8 °F21.2 °F60 %29.62 in6.2 miNorth (350°)29.9 mph47.2 mph
11:30 PM32.0 °F19.4 °F60 %29.62 in6.2 miNorth (350°)28.8 mph43.7 mph
Hourly data recorded from LFMV, located miles away from Avignon, France







STORIES FROM OUR PARTNERS